Content
SEND FEEDBACK

Daily
Averages
Monthly
Summary
United States of America

EDGEWOOD, NEW MEXICO


Home > North America > United States > New Mexico
Elevation: 6800 feet     Latitude: 35 03N     Longitude: 106 08W

WEATHER
 
SELECT A DAY
Number of Records: 47,689;   Date Range: 10/28/10 - 4/21/13
 
SHARE

PRINT THIS DATA

[ ← Previous Day ]
WEATHER ALMANAC - FEBRUARY 13, 2013
[ Next Day → ]
[ °C ]   °F
Weather ElementAverageHighLow
Temperature31.9 °F48.2 °F (3:15 pm)12.4 °F (5:55 am)
Dewpoint9.5 °F14.9 °F (11:55 pm)3 °F (12:55 am)
Humidity42.1 %76 % (5:55 am)22 % (2:55 pm)
Barometer30.07 in30.11 in (12:35 am)29.99 in (3:15 pm)
Wind Speed9.9 mph20.7 mph (12:55 pm)
Wind Gust28.8 mph (1:15 pm)
Weather ElementAverage
Visibility10 mi
Wind DirectionW (267.3 °)

Weather ElementTotal
Precipitation---
Heating Degree Days34.7 (Base 65)
Averaged from 71 records on February 13, 2013
WEATHER CONDITIONS BREAKOUT
WIND DIRECTION BREAKOUT
WEATHER BY HOUR - FEBRUARY 13, 2013
[ °C ]   °F
Local TimeTemperatureDewpointHumidityBarometerVisibilityWind DirectionWind SpeedGust SpeedPrecipitationEventsConditions
12:35 AM24.6 °F3.7 °F41 %30.11 in10.0 miCalmClear
12:55 AM25.7 °F3.0 °F38 %30.11 in10.0 miSouth (180°)3.5 mphClear
1:15 AM25.0 °F3.2 °F39 %30.11 in10.0 miESE (120°)3.5 mphClear
1:35 AM25.2 °F3.6 °F40 %30.11 in10.0 miCalmClear
1:55 AM21.9 °F3.9 °F46 %30.11 in10.0 miCalmClear
2:15 AM22.6 °F5.2 °F47 %30.10 in10.0 miNW (310°)12.7 mphClear
2:35 AM22.8 °F4.8 °F46 %30.10 in10.0 miENE (70°)3.5 mphClear
2:55 AM23.9 °F4.8 °F44 %30.10 in10.0 miNNW (340°)5.8 mphClear
3:15 AM21.2 °F5.0 °F50 %30.09 in10.0 miNNW (330°)6.9 mphClear
3:35 AM20.3 °F5.0 °F52 %30.09 in10.0 miWNW (300°)4.6 mphClear
3:55 AM21.2 °F5.4 °F51 %30.09 in10.0 miCalmClear
4:15 AM17.4 °F4.1 °F56 %30.09 in10.0 miSSE (150°)3.5 mphClear
4:35 AM17.4 °F7.0 °F64 %30.09 in10.0 miNorth (360°)3.5 mphClear
4:55 AM18.1 °F7.7 °F64 %30.09 in10.0 miNNW (340°)3.5 mphClear
5:15 AM14.5 °F4.1 °F63 %30.09 in10.0 miNE (40°)3.5 mphClear
5:35 AM15.8 °F8.1 °F72 %30.09 in10.0 miNW (320°)6.9 mphClear
5:55 AM12.4 °F6.1 °F76 %30.09 in10.0 miNW (310°)5.8 mphClear
6:15 AM15.8 °F8.2 °F72 %30.10 in10.0 miCalmClear
6:35 AM16.3 °F8.4 °F71 %30.10 in10.0 miNW (320°)6.9 mphClear
6:55 AM16.9 °F8.6 °F70 %30.10 in10.0 miNorth (350°)8.1 mphClear
7:15 AM17.2 °F9.3 °F71 %30.10 in10.0 miNNW (330°)9.2 mphClear
7:35 AM20.5 °F10.9 °F67 %30.10 in10.0 miNW (320°)8.1 mphClear
7:55 AM23.0 °F11.3 °F61 %30.10 in10.0 miWNW (300°)5.8 mphClear
8:15 AM25.7 °F11.8 °F56 %30.10 in10.0 miNW (310°)10.4 mphClear
8:35 AM28.4 °F12.4 °F51 %30.11 in10.0 miNNW (330°)9.2 mphClear
8:55 AM29.5 °F11.5 °F47 %30.10 in10.0 miWNW (290°)5.8 mphClear
9:15 AM31.6 °F11.3 °F43 %30.10 in10.0 miWNW (290°)9.2 mphClear
9:35 AM33.8 °F11.5 °F40 %30.10 in10.0 miNW (320°)10.4 mphClear
9:55 AM36.1 °F9.9 °F34 %30.10 in10.0 miNNW (330°)13.8 mph23.0 mphClear
10:15 AM36.7 °F9.3 °F32 %30.09 in10.0 miNNW (330°)18.4 mph26.5 mphClear
10:35 AM37.8 °F9.3 °F31 %30.09 in10.0 miNNW (330°)10.4 mph20.7 mphClear
10:55 AM38.8 °F8.8 °F29 %30.08 in10.0 miNNW (330°)17.3 mph23.0 mphClear
11:15 AM40.3 °F9.5 °F28 %30.08 in10.0 miNNW (330°)16.1 mph21.9 mphClear
11:35 AM40.6 °F8.6 °F27 %30.08 in10.0 miNNW (330°)15.0 mph26.5 mphClear
11:55 AM42.3 °F9.5 °F26 %30.07 in10.0 miNW (320°)12.7 mph20.7 mphClear
12:15 PM41.9 °F9.3 °F26 %30.05 in10.0 miNW (320°)11.5 mph17.3 mphClear
12:35 PM43.7 °F9.1 °F24 %30.04 in10.0 miWNW (290°)19.6 mph24.2 mphClear
12:55 PM44.6 °F9.5 °F24 %30.04 in10.0 miWNW (300°)20.7 mph25.3 mphClear
1:15 PM44.1 °F9.5 °F24 %30.03 in10.0 miNW (320°)18.4 mph28.8 mphClear
1:35 PM45.3 °F9.7 °F23 %30.02 in10.0 miNNW (340°)17.3 mph25.3 mphClear
1:55 PM45.7 °F9.9 °F23 %30.02 in10.0 miNW (310°)13.8 mph23.0 mphClear
2:15 PM46.4 °F10.2 °F23 %30.01 in10.0 miNW (320°)16.1 mph25.3 mphClear
2:35 PM47.7 °F10.8 °F23 %30.00 in10.0 miNW (310°)19.6 mphClear
2:55 PM48.0 °F10.9 °F22 %30.00 in10.0 miWNW (300°)17.3 mphClear
3:15 PM48.2 °F11.3 °F23 %29.99 in10.0 miNW (320°)15.0 mph21.9 mphClear
3:35 PM47.8 °F11.3 °F23 %30.00 in10.0 miNW (310°)17.3 mph24.2 mphClear
3:55 PM47.3 °F11.1 °F23 %30.00 in10.0 miWNW (300°)15.0 mph20.7 mphClear
4:15 PM47.1 °F11.3 °F24 %30.00 in10.0 miWNW (300°)13.8 mphClear
4:35 PM46.6 °F11.3 °F24 %30.00 in10.0 miNW (310°)12.7 mphClear
4:55 PM45.3 °F11.3 °F25 %30.00 in10.0 miNW (310°)10.4 mphClear
5:15 PM43.5 °F11.5 °F27 %30.01 in10.0 miWNW (300°)12.7 mph18.4 mphClear
5:35 PM40.8 °F11.3 °F30 %30.01 in10.0 miWNW (300°)10.4 mphClear
5:55 PM36.7 °F10.8 °F34 %30.02 in10.0 miWNW (290°)5.8 mphClear
6:15 PM34.0 °F10.0 °F37 %30.02 in10.0 miNNW (330°)5.8 mphClear
6:35 PM31.6 °F9.3 °F39 %30.03 in10.0 miNW (320°)9.2 mphClear
6:55 PM32.0 °F11.5 °F43 %30.04 in10.0 miWNW (290°)12.7 mphClear
7:15 PM32.5 °F10.8 °F40 %30.05 in10.0 miNW (320°)6.9 mphClear
7:35 PM29.1 °F10.9 °F47 %30.05 in10.0 miNW (310°)5.8 mphClear
7:55 PM30.2 °F12.2 °F47 %30.06 in10.0 miNNW (330°)9.2 mphClear
8:15 PM32.9 °F13.3 °F44 %30.07 in10.0 miNW (310°)11.5 mphClear
8:35 PM29.8 °F11.8 °F47 %30.08 in10.0 miEast (80°)3.5 mphClear
8:55 PM30.7 °F13.5 °F49 %30.08 in10.0 miNW (310°)9.2 mphClear
9:15 PM32.4 °F13.1 °F45 %30.08 in10.0 miNW (310°)6.9 mphClear
9:35 PM30.7 °F12.7 °F47 %30.08 in10.0 miSouth (170°)4.6 mphClear
9:55 PM30.2 °F12.2 °F47 %30.08 in10.0 miSW (220°)4.6 mphClear
10:15 PM33.1 °F12.6 °F43 %30.08 in10.0 miCalmClear
10:35 PM32.2 °F13.6 °F46 %30.07 in10.0 miWNW (300°)20.7 mph27.6 mphClear
10:55 PM34.2 °F13.1 °F42 %30.07 in10.0 miNW (310°)18.4 mphClear
11:15 PM32.2 °F13.5 °F46 %30.08 in10.0 miWNW (300°)15.0 mphClear
11:35 PM32.7 °F13.8 °F46 %30.07 in10.0 miWNW (290°)15.0 mphClear
11:55 PM35.6 °F14.9 °F43 %30.07 in10.0 miWNW (300°)19.6 mph26.5 mphClear
Hourly data recorded from K4MY, located miles away from Edgewood, New Mexico







STORIES FROM OUR PARTNERS